STARLINK-1641, 46174

Orbit data source: Space-Track

STARLINK-1641, 46174 is a payload satellite owned by SpaceX/Seattle (US) in LEO that was launched on Tue, 18 Aug 2020 UTC via an FALCON 9 launch vehicle from the Air Force Eastern Test Range (AFETR). Payload-class satellites include a variety of spacecraft equipped with specific instruments for various scientific and technological missions. These include communications satellites like Starlink; space stations such as the ISS; scientific satellites like the Hubble; Earth observation satellites from companies like Planet Labs, Umbra, and HawkEye 360; GPS; miniature CubeSats for education and research; and military/defense satellites.

Loading next visibility...
Identifier
46174, 2020-057BK
Orbit
LEO
Country
Flag of USUS
Related business
Manufacturer
SpaceX/Seattle
Mission
Partially operational Commercial Communications
Bus & Motor
STARLINK, Unknown motor
Mass
260 kg wet, ~248 kg dry
Launch date (UTC)
2020-08-18 (6 years ago)
Launch vehicle
FALCON 9
Launch site
Air Force Eastern Test Range (AFETR)
Object type
Payload
Rocket body
Debris
Shape & HBR
Box + 1 Pan, 10.1 m
Radar Cross Section
13.562 m², Large (>1 m²)

Expand to show TLE details & history
Last TLE update: 16 hours ago

TLE from 16 hours ago
0 STARLINK-1641
1 46174U 20057BK  26071.74560600  .00041335  00000-0  71421-3 0  9994
2 46174  53.0501 270.3110 0000333 239.2619 120.8356 15.50593394306988
Epoch: 2026-03-12T17:53Z
TLE epoch observation values (Epoch: 2026-03-12T17:53:40.358Z)
Latitude
-0.00005°
Longitude
-168.49828°
Altitude
416.004 km
Speed
7.663 km/s
True Right ascension
18h 01m 14s
True Declination
0° 00' 00"
Sunlit
Object was in daylight at epoch
Visualization orbit readout
Latitude
Unknown
Longitude
Unknown
Altitude
Unknown
Speed
Unknown
Apparent Right ascension
Unknown
Apparent Declination
Unknown
Sunlit
N/A
Visualization observer readout
Local Sidereal Time
14:19:16
Azimuth
Unknown
Elevation
Unknown
Doppler factor
Unknown
Orbital elements
Apogee altitude
415.495 km
Perigee altitude
415.043 km
Semi-major axis
6,793.406 km
Eccentricity
0.00003
Inclination
53.0501°
RAAN
270.311°
Arg. of periapsis
239.2619°
True anomaly
120.83888°
Mean anomaly
120.8356°
Eccentric anomaly
120.83724°
Mean motion
3.87625 °/min
Orbital period
92.87 mins
BSTAR
0.00071421
Loading maneuver chart data...
Computing Atmospheric mass density...

Documentation

Showing up to 5 results
|